Theta_e
308 307 307 307 308 309 310 311 312 312 312 312 311 311 311 313 315 316 317 317 320 319 317 318 318 320 318 320 318 316 323 325 323 327 338 339 341 340 338 337 339 338 344 345 346
308 307 307 307 309 310 310 312 312 313 312 312 311 311 311 314 317 318 319 320 320 319 318 319 321 322 323 323 321 322 324 323 321 327 340 339 341 339 339 341 342 343 345 345 346
307 307 306 308 309 310 311 312 313 313 312 312 311 311 313 316 318 319 319 320 319 319 317 318 320 321 323 320 320 320 324 320 320 324 338 335 341 338 340 341 340 342 348 345 346
307 306 307 309 310 310 311 312 313 313 312 312 311 313 315 317 318 319 319 318 319 319 317 317 320 321 321 321 318 321 319 319 323 324 332 335 335 340 338 339 341 343 345 344 345
306 307 309 310 310 311 311 312 312 312 312 311 311 313 317 316 319 319 319 318 318 317 318 319 321 320 321 319 318 319 318 318 320 325 328 332 336 337 337 338 344 345 345 345 343
308 309 309 310 311 311 311 312 312 312 312 311 313 314 316 319 318 320 320 319 318 318 319 318 320 319 320 319 321 317 319 319 322 328 331 336 335 336 336 339 346 346 346 344 340
309 309 310 310 311 311 311 311 312 312 312 313 314 314 315 320 319 320 320 319 319 319 319 318 318 321 319 321 317 317 320 322 320 326 333 334 335 334 336 340 345 345 344 341 338
309 310 310 310 310 310 310 310 311 312 313 314 315 316 320 320 320 319 319 319 319 318 317 317 317 319 320 318 320 321 321 324 319 321 328 330 332 332 337 341 344 343 343 342 340
309 309 310 310 309 309 309 311 313 314 314 315 316 316 321 320 321 320 320 320 320 319 319 319 319 320 321 324 323 323 324 323 320 319 324 324 325 331 336 341 343 344 345 343 343
308 308 308 309 309 310 314 316 315 314 315 315 316 319 320 321 320 320 320 320 320 321 322 322 321 323 322 325 325 324 324 323 322 320 319 324 324 333 336 342 343 344 345 344 342
308 307 308 308 310 314 318 319 321 320 319 317 319 319 318 320 319 319 320 321 322 323 325 321 325 325 322 322 322 322 323 324 322 320 321 323 324 331 335 341 341 342 343 340 339
309 308 308 310 313 317 320 321 320 321 324 319 318 316 316 318 321 320 321 324 324 324 321 324 324 321 319 321 323 323 324 323 322 319 321 320 325 332 334 336 338 340 341 338 337
310 308 309 312 316 319 320 320 319 319 323 321 319 320 321 319 320 322 322 322 322 322 322 325 322 319 322 323 324 323 323 323 323 320 317 319 322 329 332 332 333 335 339 337 336
314 310 311 315 320 319 320 319 320 320 321 318 322 321 319 319 322 321 321 324 323 323 323 324 322 322 323 323 322 324 321 321 321 321 323 317 321 324 325 333 333 334 335 334 333
312 312 313 316 318 320 319 320 320 317 323 326 323 320 318 321 322 323 321 325 325 324 324 325 323 323 324 322 321 324 319 319 318 320 320 321 321 320 325 328 332 333 334 333 332
313 314 313 316 320 320 319 320 318 318 321 324 321 320 321 321 322 322 324 324 324 325 324 324 321 322 323 320 318 317 319 317 319 319 322 320 323 323 328 329 329 331 332 332 330
314 316 313 316 321 317 322 319 322 318 319 324 322 320 320 322 323 323 325 328 328 329 328 325 324 323 322 325 321 323 324 323 320 321 321 319 325 327 325 323 329 330 331 329 321
314 317 314 314 315 316 320 325 321 316 325 326 324 320 322 322 323 324 326 329 325 326 327 328 328 325 322 324 324 319 322 322 321 321 321 320 326 326 323 320 320 323 325 319 317
314 318 321 321 314 318 324 324 321 320 326 326 327 323 323 321 323 327 326 328 326 325 330 328 327 323 319 319 320 321 322 318 324 321 323 322 323 324 323 321 321 321 319 317 314
312 321 321 316 320 322 325 319 323 321 326 327 329 327 327 327 324 326 329 327 325 324 324 326 330 324 324 319 317 319 318 324 324 325 323 322 322 322 325 324 321 321 318 315 314
311 325 320 318 321 326 326 323 322 323 325 327 329 329 328 328 326 329 329 326 325 324 324 325 329 326 325 324 324 321 321 319 322 324 324 323 322 321 323 323 323 320 316 315 314
308 322 318 322 328 321 326 323 321 326 325 326 327 328 328 326 330 330 329 327 325 324 327 324 328 327 324 321 319 321 320 321 325 325 322 323 324 319 319 318 319 318 315 314 314
313 313 317 320 329 327 323 324 324 325 325 326 328 327 325 327 331 328 327 324 325 325 327 325 327 329 320 321 322 323 319 319 321 320 326 328 326 319 317 317 316 316 315 315 315
319 319 322 319 318 326 326 325 328 323 324 324 326 325 326 326 326 329 326 323 322 325 323 327 326 325 323 320 322 324 322 321 323 329 323 322 322 322 321 319 318 317 316 315 315
317 322 318 325 321 320 321 323 323 324 322 322 326 325 328 328 326 328 326 324 321 324 320 325 328 324 323 321 321 322 323 323 324 324 326 323 324 323 322 320 318 317 316 316 316
321 320 316 318 317 319 318 322 322 322 322 324 325 324 324 330 330 329 327 326 327 321 323 321 329 324 326 323 324 325 324 324 324 323 322 322 323 319 317 316 317 317 317 317 316
312 313 317 312 319 318 322 321 322 322 322 322 323 324 325 325 324 324 325 327 327 327 325 326 328 328 327 323 324 326 323 323 323 321 321 323 321 318 319 318 319 319 318 317 314
Wind_Speed
3 3 2 1 1 0 1 1 2 5 8 11 13 15 16 17 12 4 3 3 1 2 5 3 3 4 4 3 3 2 1 3 4 6 7 9 6 2 2 8 3 2 3 5 12
3 3 2 2 2 1 1 2 3 6 9 11 14 16 18 17 6 2 1 4 2 3 3 6 3 1 3 2 2 1 1 4 4 7 10 15 9 10 6 5 4 6 8 13 13
3 2 2 3 2 2 2 3 5 7 10 12 15 18 19 10 0 2 2 6 6 4 3 3 2 3 3 2 2 2 2 1 3 6 16 14 13 6 12 9 12 16 14 14 14
3 2 3 2 2 2 3 4 6 9 11 13 15 17 16 3 4 1 3 1 3 3 2 2 3 3 2 2 1 3 0 1 5 6 13 14 11 9 7 6 7 11 16 15 11
3 3 3 2 2 3 4 6 8 10 11 13 15 15 6 1 2 3 3 2 2 2 0 1 3 2 3 2 4 1 3 4 6 9 8 9 6 6 4 2 12 16 15 12 11
2 2 2 2 3 4 6 7 9 10 12 13 14 13 2 4 2 4 4 2 4 4 2 3 1 1 4 2 2 3 6 7 6 7 4 9 5 2 2 4 14 14 12 9 8
2 3 3 3 4 5 7 8 9 11 12 13 12 10 0 1 1 9 5 2 2 4 1 2 4 0 1 2 2 4 5 7 7 4 4 6 3 2 3 7 12 10 9 9 8
3 3 4 4 5 6 7 9 10 11 12 11 10 3 3 2 9 6 2 3 2 3 1 1 4 5 3 2 3 3 4 6 4 1 4 5 15 2 5 9 10 10 8 8 8
4 4 5 6 6 7 8 10 10 9 8 6 2 3 3 7 5 8 4 2 2 3 6 7 3 4 1 3 3 5 3 4 3 3 4 5 9 7 9 10 11 10 9 8 8
4 5 6 6 6 7 9 10 5 5 2 3 2 1 2 4 6 10 3 2 3 1 2 5 4 3 3 1 4 3 4 4 5 3 5 11 17 9 12 12 13 11 10 9 8
3 5 4 4 5 7 9 2 1 0 2 1 1 2 3 9 4 2 2 1 3 7 3 4 4 5 4 5 7 7 4 1 2 3 3 4 9 11 14 13 12 10 10 8 8
2 3 2 2 4 8 5 4 3 1 2 1 4 5 6 2 2 2 1 2 4 4 1 3 6 3 6 6 6 3 2 3 2 3 4 4 5 5 12 12 10 11 11 11 11
5 2 0 3 6 2 5 4 7 5 0 3 3 3 2 4 1 2 2 2 5 4 3 4 5 4 1 3 3 2 2 1 4 5 1 4 2 3 7 8 9 11 13 12 13
6 1 1 4 2 2 1 13 0 11 3 2 2 1 3 1 2 1 2 2 3 6 5 6 2 1 2 3 1 1 1 4 5 4 7 4 3 2 2 12 13 14 15 15 14
7 1 2 1 1 2 6 4 8 1 2 1 2 1 1 3 1 3 5 3 3 4 3 2 6 2 1 2 1 2 3 2 1 2 3 3 4 3 1 8 14 14 16 15 15
10 2 3 2 1 3 10 3 1 1 1 1 1 3 5 2 1 1 3 7 3 4 7 2 1 0 1 2 3 2 2 3 2 1 2 3 3 2 2 4 7 13 15 15 13
13 2 5 2 1 9 6 2 1 1 2 2 1 3 4 3 2 2 2 3 1 3 1 1 1 2 1 3 3 4 4 3 1 0 2 2 3 3 4 6 7 12 14 10 4
15 2 3 4 1 7 3 3 1 1 3 3 3 2 6 5 2 2 3 3 2 2 2 3 3 1 2 2 2 4 2 2 4 3 6 1 2 1 2 1 2 6 6 5 3
12 2 2 5 5 1 4 1 3 4 2 5 1 2 2 3 3 3 1 4 2 3 4 4 3 1 5 2 3 2 1 2 3 1 3 2 2 6 5 4 3 5 6 5 3
7 2 5 2 5 4 3 3 2 3 4 1 1 1 3 2 5 5 6 1 3 1 1 4 2 1 2 2 9 1 6 1 1 3 4 2 3 3 7 9 5 6 6 4 4
3 2 7 3 3 4 2 3 3 5 4 2 1 2 2 3 3 3 5 1 0 3 2 3 0 1 2 2 1 2 2 4 1 2 3 5 3 2 4 6 9 8 6 4 5
3 1 6 5 2 1 3 3 2 4 3 4 2 1 2 2 3 2 4 1 4 2 3 2 2 2 2 1 4 2 1 1 2 2 1 2 7 2 3 4 3 7 4 2 4
2 2 3 2 3 2 1 2 2 3 3 1 3 1 1 3 3 2 3 2 3 2 4 6 2 1 2 2 2 1 2 4 4 0 6 5 6 2 2 4 4 3 2 4 4
1 0 2 3 2 4 3 1 2 1 2 2 1 1 3 2 5 4 3 2 2 3 5 5 3 3 2 2 1 4 3 3 3 3 8 11 17 13 7 9 6 4 3 4 5
3 1 1 2 2 2 1 2 1 3 1 2 2 2 4 3 3 3 3 3 3 5 3 1 3 3 3 4 4 7 9 7 8 9 6 13 13 17 12 8 6 4 4 6 8
1 1 1 2 1 2 1 2 3 1 2 2 3 4 2 4 6 8 7 4 3 2 3 1 2 2 3 1 3 7 11 10 10 6 10 12 14 4 1 3 5 5 7 8 8
2 1 2 1 1 2 2 3 3 1 2 2 3 1 3 4 4 2 3 4 5 7 5 4 5 3 3 2 6 7 6 4 3 4 4 5 4 2 5 7 7 8 7 9 8
Wind_Direction
289 301 295 249 168 176 306 329 323 328 334 339 340 336 333 330 320 297 242 186 157 328 334 315 91 17 86 92 82 154 86 92 143 172 131 156 139 156 77 139 137 175 156 86 120
277 286 259 189 175 212 251 271 305 322 331 337 338 334 332 332 331 252 224 199 219 351 0 24 35 52 91 66 62 340 201 170 157 157 157 163 159 138 170 157 120 132 95 118 125
270 266 219 187 196 226 256 282 306 321 329 337 338 336 334 336 16 22 24 218 230 280 348 13 44 50 76 19 52 134 249 116 155 178 153 157 152 157 155 173 164 170 150 150 149
260 231 200 203 225 254 272 291 306 317 327 334 339 341 342 21 92 349 66 104 197 246 333 6 53 101 112 56 69 222 289 8 131 150 151 161 140 146 199 135 145 153 151 157 166
234 202 207 232 255 272 280 292 303 314 324 332 339 342 341 22 77 44 88 178 214 213 198 346 44 118 66 105 142 20 83 71 99 114 106 133 133 143 186 98 137 143 155 169 171
201 209 232 250 266 280 286 293 300 309 320 328 334 342 356 84 188 357 334 244 230 224 191 187 38 154 96 75 62 44 103 115 67 95 81 142 126 177 190 170 148 156 162 170 168
225 241 249 265 279 285 287 290 297 306 314 322 327 337 1 130 247 328 296 313 269 213 217 208 157 46 112 87 36 100 103 102 43 55 84 138 149 193 143 172 154 167 164 156 164
247 253 263 274 282 286 288 290 293 300 308 316 321 335 265 332 326 29 46 80 51 151 242 105 142 99 29 118 44 72 96 162 20 74 147 232 224 176 161 176 164 164 160 159 166
258 262 269 274 285 294 299 296 294 294 307 321 357 28 339 344 34 7 3 43 114 74 66 94 81 61 81 113 117 39 93 118 105 53 173 218 242 195 176 184 169 167 166 166 163
262 259 264 280 304 315 317 306 283 283 280 334 352 260 342 328 315 326 327 1 52 20 83 40 52 78 67 191 91 75 114 88 134 67 203 216 247 185 185 187 178 171 168 181 177
268 254 266 306 323 328 334 120 347 117 27 226 280 254 288 313 325 2 347 73 41 53 62 26 95 80 66 87 112 120 111 101 182 176 277 235 271 216 185 189 185 181 182 180 196
317 267 287 321 325 341 31 82 115 71 327 320 264 277 266 263 337 340 38 79 50 92 124 96 96 91 102 86 100 105 98 36 279 353 319 351 17 150 192 200 201 191 194 203 212
351 305 277 302 331 37 84 79 308 193 76 304 238 261 297 167 114 339 48 99 76 93 83 112 115 148 90 73 59 50 39 297 303 345 67 321 150 175 196 203 202 207 213 218 226
4 310 238 322 97 26 54 341 125 163 61 289 227 261 166 142 4 347 60 96 75 106 91 84 132 177 58 76 347 290 259 283 287 294 315 349 300 194 214 219 221 215 215 224 228
10 196 211 17 28 76 330 349 134 144 130 105 185 29 86 169 126 46 27 47 121 117 214 107 170 161 58 26 255 11 6 6 359 155 212 30 274 103 226 227 225 219 219 224 233
13 187 188 269 57 3 352 120 74 30 143 66 156 150 142 65 101 79 76 53 100 75 51 78 308 357 89 106 52 334 250 65 88 161 193 20 316 137 275 291 226 213 218 222 233
9 140 184 181 45 352 352 50 50 167 330 77 143 163 160 144 110 45 62 51 121 138 81 44 9 329 202 228 163 14 352 328 221 349 340 17 256 340 296 254 235 208 210 216 205
2 103 190 215 250 347 26 63 171 279 274 337 14 106 183 147 77 83 112 139 78 95 128 198 212 342 7 14 348 48 355 311 311 310 319 215 234 55 221 342 287 249 204 148 145
358 34 93 325 236 252 75 78 229 210 311 328 309 141 142 138 122 126 139 169 163 190 186 174 234 15 41 59 328 130 259 65 114 119 263 297 235 248 210 202 167 140 142 140 152
353 72 21 56 119 93 85 227 245 229 315 316 258 215 161 138 162 190 180 144 148 354 294 166 217 72 97 133 56 282 129 228 106 288 294 240 271 287 218 223 193 179 175 173 174
14 86 358 156 76 63 178 227 269 256 234 245 275 138 115 133 135 153 163 108 348 81 89 126 122 125 239 23 293 154 190 66 64 305 283 301 304 184 262 283 248 207 187 192 206
15 106 5 156 69 28 161 196 263 286 245 262 222 166 143 135 110 129 152 52 339 146 88 44 109 253 352 347 289 342 19 178 223 203 188 303 285 167 279 304 235 183 189 203 226
27 290 356 143 167 188 216 245 256 320 303 287 216 133 86 116 112 122 115 16 9 91 150 176 52 309 186 169 135 171 121 106 95 82 214 265 268 159 228 222 199 204 237 245 258
347 311 355 59 19 145 153 112 307 294 237 315 150 99 113 91 35 139 128 33 42 92 93 96 129 197 249 295 285 258 199 206 234 242 284 254 289 289 278 238 214 230 257 285 288
14 96 16 107 68 103 125 141 164 337 13 329 152 234 157 131 120 151 149 142 75 144 73 101 188 206 261 245 234 266 268 251 236 256 251 292 285 290 306 245 231 263 261 286 292
44 178 100 93 324 159 1 174 166 277 264 21 57 356 193 158 187 192 162 197 183 141 109 54 155 188 264 320 241 276 279 261 253 258 256 277 282 314 291 210 226 257 269 281 290
49 89 279 38 94 173 162 167 181 230 190 254 328 265 231 258 260 339 118 125 156 161 149 153 151 174 277 329 310 270 236 213 239 215 247 271 324 231 225 234 251 268 272 272 285